Regional Weather Roundup
Issued by NWS Wakefield, VA

Home | Current Version | Previous Version | Graphics & Text | Print | Product List | Glossary On
Versions: 1 2 3 4 5 6 7 8 9 10 11 12 13 14 15 16 17 18 19 20 21 22 23 24 25 26 27 28 29 30 31 32 33 34 35 36 37 38 39 40 41 42 43 44 45 46 47 48
000
ASUS41 KAKQ 261010
RWRAKQ

REGIONAL WEATHER ROUNDUP
NATIONAL WEATHER SERVICE WAKEFIELD VA
500 AM EST MON JAN 26 2015

Note: "fair" indicates few or no clouds below 12,000 feet with no
significant weather and/or obstructions to visibility. * = Denotes
station may not report precipitation (e.g., rain,snow,etc.),
thunder or fog.

VAZ042-051-052>054-056-261100-
NORTHERN VIRGINIA

CITY           SKY/WX    TMP DP  RH WIND       PRES   REMARKS
WASH NATIONAL  LGT RAIN  41  36  81 E14       29.80F
DULLES         LGT RAIN  37  36  93 E7G16     29.76F
FORT BELVOIR   LGT RAIN  39  37  93 VRB3      29.79F
QUANTICO       LGT RAIN  40  35  83 NE8       29.79S
FREDERICKSBRG* LGT RAIN  39  39 100 E3        29.76S
STAFFORD*      RAIN      38  32  79 CALM      29.81S
WARRENTON      LGT RAIN  39  39 100 NE3       29.76S
CULPEPER*      LGT RAIN  39  37  93 CALM      29.76S
MANASSAS*      CLOUDY    39  39 100 CALM      29.77F
LEESBURG*      LGT RAIN  37  37 100 E5        29.78F
WINCHESTER     LGT RAIN  36  32  87 NE5       29.75S
FRONT ROYAL*   CLOUDY    36  34  93 N5        29.72F
LURAY*         LGT RAIN  37  37 100 NE6       29.71S
$$

VAZ048-049-060>072-079>083-261100-
CENTRAL AND SOUTH CENTRAL VIRGINIA

CITY           SKY/WX    TMP DP  RH WIND       PRES   REMARKS
RICHMOND       LGT RAIN  40  37  89 CALM      29.75F
CHESTERFIELD*  CLOUDY    39  28  65 CALM      29.76S
PETERSBURG*    LGT RAIN  40  38  91 CALM      29.76R
HANOVER        RAIN      39  37  92 CALM      29.77F FOG
TAPPAHANNOCK*  DRIZZLE   39  35  85 CALM      29.77F
QUINTON*       CLOUDY    39  35  87 E3        29.75F
CHARLOTTSVILLE LGT RAIN  37  35  92 NE5       29.72F
GORDONSVILLE*  CLOUDY    35  34  97 CALM      29.73F FOG
ORANGE*        RAIN      36  36 100 CALM      29.75F
LOUISA*        RAIN      39  37  93 CALM      29.72F
BUMPASS*       CLOUDY    38  37  96 E3        29.74S
FARMVILLE*     LGT RAIN  42  41  97 CALM      29.70F
CREWE*         CLOUDY    39  38  94 CALM      29.72F
FORT PICKETT*  CLOUDY    38  37  98 CALM      29.72F
CHASE CITY*    CLOUDY    41  41 100 E7        29.69F
CLARKSVILLE*   CLOUDY    39  37  93 E9        29.68F
SOUTH HILL*    CLOUDY    37  34  90 CALM      29.78S
LAWRENCEVILLE* PTSUNNY   37  35  92 CALM      29.73F
EMPORIA*       CLOUDY    36  34  93 CALM      29.76S
$$

VAZ088>098-261100-
SOUTHEAST VIRGINIA

CITY           SKY/WX    TMP DP  RH WIND       PRES   REMARKS
NORFOLK        MOCLDY    41  35  79 E5        29.74F
VIRGINIA BEACH MOCLDY    43  38  82 E8        29.74F
NORFOLK NAVAL  CLOUDY    43  35  73 E6        29.75F
WEST POINT*    CLOUDY    40  36  83 CALM      29.77F
SALUDA*        CLOUDY    39  37  91 E3        29.77S
NEWPORT NEWS   CLOUDY    43  36  76 E6        29.75F
LANGLEY AFB    CLOUDY    42  37  82 SE7       29.75F
FORT EUSTIS    CLOUDY    41  37  84 SE5       29.73F
WILLIAMSBURG*    N/A     43  37  81 CALM      29.76F
HR EXEC AP*    PTSUNNY   36  32  87 E3        29.76F
FRANKLIN*      CLOUDY    36  34  92 CALM      29.75S
WAKEFIELD      CLOUDY    37  34  89 CALM      29.75F
$$

VAZ020-022-025-037-045-261100-
WEST CENTRAL AND SOUTHWEST VIRGINIA

CITY           SKY/WX    TMP DP  RH WIND       PRES   REMARKS
STAUNTON*      LGT RAIN  36  34  91 CALM      29.70F
WAYNESBORO*    CLOUDY    37  35  93 E3        29.68F
HOT SPRINGS VA SNOW      32  32 100 CALM      29.57F VSB 1/4
LYNCHBURG      CLOUDY    38  37  97 NE3       29.69S
DANVILLE       CLOUDY    41  35  79 E3        29.67F
SOUTH BOSTON*  CLOUDY    39  38  94 CALM      29.68F
MARTINSVILLE   MOCLDY    33  33 100 CALM      29.68S
ROANOKE        MOCLDY    39  32  76 CALM      29.68F
BLACKSBURG     PTCLDY    33  29  86 E5        29.65F
DUBLIN*        MOCLDY    34  32  92 CALM      29.63S
MARION*        CLOUDY    35  31  86 CALM      29.63S
HILLSVILLE*    MOCLDY    35  30  82 CALM      29.60S
RICHLANDS*     CLOUDY    39  32  76 W7        29.60S
WISE*          DRIZZLE   37  37 100 SW7       29.61S
ABINGDON*      LGT RAIN  41  38  87 W7        29.62S
$$

MDZ021>025-VAZ099-100-261100-
SOUTHERN MARYLAND AND THE DELMARVA PENINSULA

CITY           SKY/WX    TMP DP  RH WIND       PRES   REMARKS
PATUXENT RIVER LGT RAIN  39  35  86 E9        29.79F
BAY BRIDGE APT DRIZZLE   37  32  81 E14       29.84S
LEONARDTOWN    CLOUDY    37  36  93 E5        29.79F
DOVER          CLOUDY    34  30  86 NE9G17    29.87S
GEORGETOWN     CLOUDY    38  31  76 NE10      29.84F
EASTON         CLOUDY    40  36  84 E10G17    29.86F
CAMBRIDGE      CLOUDY    41  34  75 NE7       29.80F
SALISBURY      CLOUDY    41  36  82 NE9       29.81F
OCEAN CITY     CLOUDY    42  37  82 NE6       29.82F
WALLOPS ISLAND CLOUDY    39  38  96 NE7       29.80F
ACCOMACK*      CLOUDY    41  34  75 E6        29.78S
$$

NCZ012>017-030>032-261100-
NORTH CENTRAL AND EASTERN NORTH CAROLINA

CITY           SKY/WX    TMP DP  RH WIND       PRES   REMARKS
ROANOKE RAPIDS FAIR      36  34  93 E3        29.71F
RALEIGH        CLOUDY    40  34  79 S5        29.70F
ELIZABETH CITY CLOUDY    41  38  89 CALM      29.74F
AHOSKIE*       CLOUDY    36  34  94 CALM      29.73F
EDENTON*       FAIR      38  37  96 CALM      29.74F
CURRITUCK*     MOCLDY    40  39  94 CALM      29.75F
KILL DEVIL HLS CLOUDY    45  42  89 E6        29.73F
MANTEO         CLOUDY    45  39  81 NE7       29.74F
CAPE HATTERAS  MOCLDY    48  44  86 NE3       29.73F
TARBORO*       FAIR      36  35  96 CALM      29.74S
GOLDSBORO      CLOUDY    39  39  99 E2        29.69F
WASHINGTON     MOCLDY    37  35  94 CALM      29.73F
GREENVILLE     MOCLDY    37  36  93 CALM      29.75F
NEW BERN       PTCLDY    38  34  85 CALM      29.73F
WILMINGTON     PTCLDY    39  38  96 CALM      29.70F FOG
$$

VAZ048-261100-
ELSEWHERE

CITY           SKY/WX    TMP DP  RH WIND       PRES   REMARKS
HARRISBURG PA  LGT SNOW  25  21  85 E10       29.88F WCI  15
BALTIMORE      LGT SNOW  33  30  88 NE15      29.83F FOG     WCI  23
ANNAPOLIS      LGT RAIN  38  32  79 NE10      29.83S
ANDREWS AFB    LGT RAIN  38  36  93 NE9       29.79F
PHILADELPHIA   FLURRIES  31  23  72 NE13G20   29.93F WCI  21
HENDERSON NC   DRIZZLE   39  36  89 E6        29.69F
GREENSBORO     CLOUDY    38  33  82 S5        29.64F
ROCKY MOUNT    CLOUDY    39  36  89 VRB3      29.72F
$$

VAZ100-261100-
MARINE

STATION/POSITION TIME  TEMP    WIND        PRES    WAVE   SWELL
                       AIR SEA DIR/SP/G            HT/PER HT/PER
                 (UTC) (F)     (DEG/KT/KT) (MB)    (FT/S) (FT/S)
BRANDYWINE LGT   1000           80/ 22/ 27 1010.8R
CAPE MAY NJ      1000   37 39   60/  7/ 18 1010.7F
LEWES DE         1000   38 38   70/ 21/ 25 1010.4F
15NM E FENWICK I 1000   43 42              1009.7F   2/10
OCEAN-CITY-INLET 1000           70/  7/  9 1009.5F
WACHAPREAGUE VA  1000   42 42   70/  5/  6 1008.4F
THOMAS POINT MD  1000   38 37   70/ 12/ 13 1011.0F
GOOSES REEF MD   1000   39 37  VRB  6/  8  1008.1F   1/ 3
COVE POINT MD    1000   39     120/  4/  5 1008.8S
SOLOMONS ISLAND  1000      38                N/A
BISHOPS HEAD MD  1000   39 39   80/  7/  9 1008.4R
PINEY POINT MD   1000          110/  8/  8   N/A
POTOMAC MD       1000   40 38  100/  8/  8 1007.4F   1/ 2
CAMBRIDGE MD     1000   40 36   60/  9/ 11 1009.3F
LEWISETTA VA     1000   39 39   90/  8/  9 1007.9F
RAPPAHANNOCK LGT 1000           90/  7/  8 1008.5F
STINGRAY PT      1000   40 39  110/  8/  8 1008.6F   1
YORK RVR RNG VA  1000   42     120/ 11/ 12 1006.9F
YORKTOWN VA      1000   42 41  120/  5/  8 1007.1F
JAMESTOWN VA     1000   40 42  100/  2/  4   N/A     0
DOMINION TERM VA 1000   42      10/  2/  3 1007.3F
KIPTOPEKE VA     1000      45   90/  6/  8   N/A
CHES BAY BRIDGE  1000   43 42   80/  9/ 11 1007.1F
CAPE HENRY VA    1000   43      80/ 12/ 12 1006.2F
CHESAPEAKE LGHT  0900   45     100/ 13/ 13 1009.1F
WILLOUBY STN VA  1000   42     100/  7/  8 1007.7F
S CRANEY ISL VA  1000           CALM  /  2 1007.2F
CAPE HENRY BUOY  0900      42                N/A     2/10
1ST LANDING BUOY 1000   44 42  100/ 10/ 12 1007.2F   1/ 3
CAPE CHARLES BUO 1000      42                N/A     2/ 9   2/ 9
OFFSHORE WE BUOY 1000      47                N/A     2/ 9   2/ 9
64NM E OF VA BCH 1000   51 52   50/  6/  6 1008.0F   3/ 8   3/ 8
DUCK PIER NC     1000   45 44   80/ 10/ 11 1006.2F
44100 DUCK FRF   1000      44                N/A     2/ 8
44056 DUCK FRF   1000      43                N/A     2/ 8
OREGON INLET NC  1000   46 46   40/  7/  8 1006.7F
HATTERAS NC      1000   49 53   60/  2/  3 1007.0F



USA.gov is the U.S. government's official web portal to all federal, state and local government web resources and services.